Hurricane Symbol View the latest observations near Atlantic Tropical Storm Alberto.

Station ANVC1 - 9416841 - Arena Cove, CA Image indicating link to RSS feed of recent meteorological observations for station ANVC1


Conditions at ANVC1 as of
(1:30 am PDT)
0830 GMT on 06/20/2024:
     

Click on the graph icon in the table below to see a time series plot of the last five days of that observation.

5-day plot - Wind Direction Wind Direction (WDIR):WNW ( 290 deg true )
5-day plot - Wind Speed Wind Speed (WSPD): 5.1 kts
5-day plot - Wind Gust Wind Gust (GST): 8.0 kts
5-day plot - Atmospheric Pressure Atmospheric Pressure (PRES):29.88 in
5-day plot - Air Temperature Air Temperature (ATMP): 48.0 °F
5-day plot - Water Temperature Water Temperature (WTMP): 46.8 °F
5-day plot - Wind Chill Wind Chill (CHILL): 45.5 °F
5-day plot - Wind Speed at 10 Meters Wind Speed at 10 meters (WSPD10M): 5.8 kts
5-day plot - Wind Speed at 20 Meters Wind Speed at 20 meters (WSPD20M): 5.8 kts
5-day plot -  Wind Speed, Wind Gust and Atmospheric Pressure Combined plot of Wind Speed, Gust, and Air Pressure
NOS Water Level Observation Network Water Level
Previous observations
TIME
(PDT)
5-day plot - Wind Direction
WDIR
 
5-day plot - Wind Speed
WSPD
kts
5-day plot - Wind Gust
GST
kts
5-day plot - Wave Height
WVHT
ft
5-day plot - Dominant Wave Period
DPD
sec
5-day plot - Average Wave Period
APD
sec
5-day plot - Mean Wave Direction
MWD
 
5-day plot - Atmospheric Pressure
PRES
in
5-day plot - Pressure Tendency
PTDY
in
5-day plot - Air Temperature
ATMP
°F
5-day plot - Water Temperature
WTMP
°F
5-day plot - Dew Point
DEWP
°F
5-day plot - Salinity
SAL
psu
5-day plot - Visibility
VIS
nmi
5-day plot - Tide (above MLLW)
TIDE
ft
2024-06-20 01:24 amWNW 2.9 5.1----29.88- 48.0 46.8----
2024-06-20 01:18 am W 2.9 5.1----29.88-- 46.8----
2024-06-20 01:12 amWNW 4.1 7.0----29.88- 47.7 46.8----
2024-06-20 01:06 amWNW 5.1 7.0----29.88- 47.7 46.8----
2024-06-20 01:00 amWNW 5.1 7.0----29.88-0.05 47.5 46.8----
2024-06-20 12:54 amWNW 5.1 7.0----29.88- 47.7 46.8----
2024-06-20 12:48 amWNW 4.1 7.0----29.88-- 46.8----
2024-06-20 12:42 amWNW 4.1 7.0----29.89- 47.8 46.8----
2024-06-20 12:36 amWNW 5.1 7.0----29.89- 48.0 46.8----
2024-06-20 12:30 am W 5.1 7.0----29.89- 48.2 46.8----
2024-06-20 12:24 amWNW 4.1 7.0----29.89- 48.0 46.8----
2024-06-20 12:18 amWNW 6.0 8.0----29.89-------
2024-06-20 12:12 am W 5.1 7.0----29.90- 48.6 46.8----
2024-06-20 12:06 amWNW 5.1 8.0----29.90- 48.7 46.8----
2024-06-20 12:00 amWNW 4.1 7.0----29.91+0.00 48.9 46.8----
2024-06-19 11:54 pmWNW 5.1 8.9----29.91- 49.1 46.8----
2024-06-19 11:48 pmWNW 5.1 8.9----29.91-------
2024-06-19 11:42 pmWNW 7.0 12.0----29.91- 49.6 46.8----
2024-06-19 11:36 pmWNW 8.0 12.0----29.91- 49.8 46.8----
2024-06-19 11:30 pmWNW 7.0 11.1----29.91- 50.4 46.8----
2024-06-19 11:24 pm W 5.1 8.0----29.91- 50.7 46.8----
2024-06-19 11:18 pmWNW 4.1 6.0----29.91-- 46.8----
2024-06-19 11:12 pm W 2.9 5.1----29.91- 50.9 46.8----
2024-06-19 11:06 pm W 1.9 6.0----29.91- 50.9 46.8----
2024-06-19 11:00 pmWNW 1.9 6.0----29.91+0.00 50.9 46.8----
2024-06-19 10:54 pmWNW 1.9 6.0----29.91- 50.9 46.8----
2024-06-19 10:48 pmNNW 2.9 6.0----29.91-------
2024-06-19 10:42 pm NW 2.9 6.0----29.92- 50.9 46.8----
2024-06-19 10:36 pmNNW 2.9 6.0----29.92- 50.9 46.8----
2024-06-19 10:30 pm NW 2.9 8.0----29.92- 50.7 46.8----
2024-06-19 10:24 pmWNW 2.9 7.0----29.93- 50.7 46.8----
2024-06-19 10:18 pmWNW 2.9 6.0----29.93-------
2024-06-19 10:12 pmWNW 2.9 6.0----29.93- 50.7 46.8----
2024-06-19 10:06 pmWNW 4.1 8.0----29.93- 50.7 46.8----
2024-06-19 10:00 pmWNW 4.1 6.0----29.93+0.03 50.7 46.8----
2024-06-19 09:54 pm W 4.1 7.0----29.93- 50.7 46.9----
2024-06-19 09:48 pmWNW 5.1 8.0----29.93-- 46.9----
2024-06-19 09:42 pmWNW 4.1 7.0----29.92- 50.7 46.9----
2024-06-19 09:36 pm W 5.1 8.9----29.92- 50.5 46.9----
2024-06-19 09:30 pm W 5.1 8.9----29.91- 50.5 46.9----
2024-06-19 09:24 pmWNW 6.0 11.1----29.91- 50.5 46.9----
2024-06-19 09:18 pmWNW 5.1 8.9----29.91- 50.5 46.9----
2024-06-19 09:12 pmWNW 4.1 8.9----29.90- 50.5 46.9----
2024-06-19 09:06 pmWNW 2.9 8.0----29.90- 50.5 46.9----
2024-06-19 09:00 pmWNW 4.1 8.0----29.90+0.00 50.5 47.1----
2024-06-19 08:54 pmWNW 2.9 9.9----29.90- 50.5 47.1----
2024-06-19 08:48 pmWNW 5.1 7.0----29.90- 50.5 46.9----
2024-06-19 08:42 pmWNW 2.9 6.0----29.90- 50.4 46.9----
2024-06-19 08:36 pmWNW 2.9 6.0----29.90- 50.4 46.9----
2024-06-19 08:30 pm W 1.9 6.0----29.90- 50.2 47.1----
2024-06-19 08:24 pm NW 2.9 5.1----29.91- 50.2 46.9----
2024-06-19 08:18 pm NW 1.9 8.0----29.91- 50.0 46.9----
2024-06-19 08:12 pmWNW 1.9 6.0----29.91- 50.0 46.9----
2024-06-19 08:06 pm NW 2.9 6.0----29.91- 50.0 46.9----
2024-06-19 08:00 pmWNW 5.1 8.9----29.91+0.00 50.0 46.9----
2024-06-19 07:54 pm NW 5.1 8.9----29.91- 50.0 47.7----
2024-06-19 07:48 pmWNW 4.1 11.1----29.91- 49.8 46.9----
2024-06-19 07:42 pm NW 6.0 8.9----29.91- 49.8 46.9----
2024-06-19 07:36 pm NW 5.1 12.0----29.91- 49.8 46.9----
2024-06-19 07:30 pmWNW 7.0 12.0----29.91- 50.0 46.9----
2024-06-19 07:24 pmWNW 5.1 8.9----29.91- 50.2 46.9----
2024-06-19 07:18 pmWNW 6.0 11.1----29.91- 50.2 46.9----
2024-06-19 07:12 pmWNW 6.0 11.1----29.91- 50.2 46.9----
2024-06-19 07:06 pmWNW 5.1 9.9----29.91- 50.4 46.9----
2024-06-19 07:00 pmWNW 7.0 13.0----29.91+0.00 50.4 46.9----
2024-06-19 06:54 pmWNW 7.0 12.0----29.91- 50.4 46.9----
2024-06-19 06:48 pm W 7.0 11.1----29.91-- 47.1----
2024-06-19 06:42 pmWNW 8.0 12.0----29.91- 50.5 47.1----
2024-06-19 06:36 pmWNW 8.0 13.0----29.91- 50.9 47.1----
2024-06-19 06:30 pmWNW 8.0 12.0----29.91- 51.1 47.1----
2024-06-19 06:24 pmWNW 6.0 13.0----29.90- 51.4 47.1----
2024-06-19 06:18 pmWNW 7.0 11.1----29.90-------
2024-06-19 06:12 pmWNW 6.0 12.0----29.90- 52.5 47.1----
2024-06-19 06:06 pmWNW 6.0 14.0----29.90- 52.7 47.1----
2024-06-19 06:00 pmWNW 7.0 12.0----29.90-0.01 52.7 47.1----
2024-06-19 05:54 pmWNW 6.0 11.1----29.90- 52.9 47.1----
2024-06-19 05:48 pmWNW 8.0 13.0----29.90- 52.9 47.1----
2024-06-19 05:42 pmWNW 5.1 9.9----29.90- 53.2 47.1----
2024-06-19 05:36 pmWNW 7.0 11.1----29.90- 53.2 47.1----
2024-06-19 05:30 pmWNW 7.0 12.0----29.90- 53.4 47.1----
2024-06-19 05:24 pmWNW 5.1 9.9----29.90- 53.6 47.1----
2024-06-19 05:18 pmWNW 5.1 9.9----29.90- 53.8 47.1----
2024-06-19 05:12 pmWNW 4.1 9.9----29.90- 54.0 47.1----
2024-06-19 05:06 pm NW 6.0 12.0----29.90- 54.0 47.3----
2024-06-19 05:00 pmWNW 8.0 14.0----29.90-0.02 54.0 47.1----
2024-06-19 04:54 pmWNW 6.0 12.0----29.90- 54.0 47.1----
2024-06-19 04:48 pmWNW 7.0 11.1----29.90- 54.0 47.7----
2024-06-19 04:42 pm NW 9.9 15.0----29.90- 54.1 48.0----
2024-06-19 04:36 pmWNW 7.0 12.0----29.90- 54.1 47.5----
2024-06-19 04:30 pm W 7.0 15.0----29.90- 54.3 47.3----
2024-06-19 04:24 pm NW 8.0 14.0----29.90- 54.5 47.3----
2024-06-19 04:18 pmWNW 7.0 14.0----29.90- 54.5 47.3----
2024-06-19 04:12 pm W 5.1 15.0----29.90- 54.7 47.3----
2024-06-19 04:06 pmWNW 5.1 11.1----29.90- 54.7 47.3----
2024-06-19 04:00 pmWNW 7.0 12.0----29.91-0.02 54.7 47.3----
2024-06-19 03:54 pmWNW 6.0 15.0----29.91- 54.9 47.3----
2024-06-19 03:48 pmWNW 7.0 14.0----29.91-- 47.3----
2024-06-19 03:42 pmWNW 5.1 12.0----29.91-- 47.3----
2024-06-19 03:36 pm NW 6.0 11.1----29.91-- 47.3----
2024-06-19 03:30 pm NW 5.1 11.1----29.91- 54.9 47.3----
2024-06-19 03:24 pmWNW 6.0 11.1----29.91- 54.7 47.3----
2024-06-19 03:18 pmWNW 6.0 14.0----29.91- 54.7-----
2024-06-19 03:12 pm NW 7.0 12.0----29.91- 54.7-----
2024-06-19 03:06 pmWNW 5.1 12.0----29.91- 54.9-----
2024-06-19 03:00 pmWNW 5.1 11.1----29.91-0.01 54.7 47.3----
2024-06-19 02:54 pm NW 6.0 11.1----29.92- 54.7 47.3----
2024-06-19 02:48 pmWNW 6.0 11.1----29.92- 54.5 47.3----
2024-06-19 02:42 pmWNW 6.0 13.0----29.92- 54.3 47.3----
2024-06-19 02:36 pm W 2.9 13.0----29.92- 54.5 47.3----
2024-06-19 02:30 pm NW 7.0 12.0----29.92- 54.0 47.3----
2024-06-19 02:24 pmWNW 6.0 13.0----29.92- 54.0 47.3----
2024-06-19 02:18 pm NW 8.0 13.0----29.92- 53.8 47.3----
2024-06-19 02:12 pmWNW 6.0 14.0----29.92- 53.6 47.3----
2024-06-19 02:06 pmWNW 5.1 15.0----29.92- 53.6 47.3----
2024-06-19 02:00 pm NW 8.0 15.9----29.92+0.00 53.4 47.3----
2024-06-19 01:54 pmWNW 8.9 15.0----29.92- 52.9 47.3----
2024-06-19 01:48 pmWNW 7.0 13.0----29.92-- 47.3----
2024-06-19 01:42 pmWNW 6.0 14.0----29.92- 52.5 47.3----
2024-06-19 01:36 pmWNW 8.9 15.9----29.92- 52.0 47.3----
2024-06-19 01:30 pmWNW 7.0 13.0----29.92- 52.0 47.3----
2024-06-19 01:24 pmWNW 8.9 15.0----29.92- 51.8 47.3----
2024-06-19 01:18 pmWNW 7.0 14.0----29.92-------
2024-06-19 01:12 pmWNW 6.0 12.0----29.93- 51.6 47.3----
2024-06-19 01:06 pmWNW 6.0 15.9----29.93- 51.1 47.3----
2024-06-19 01:00 pm NW 6.0 12.0----29.93+0.02 51.4 47.3----
2024-06-19 12:54 pmWNW 7.0 12.0----29.93- 51.6 47.3----
2024-06-19 12:48 pmWNW 4.1 11.1----29.93-- 47.3----
2024-06-19 12:42 pmWNW 6.0 8.9----29.93- 51.8 47.3----
2024-06-19 12:36 pm W 5.1 14.0----29.93- 51.6 47.3----
2024-06-19 12:30 pmWNW 8.9 15.9----29.93- 51.3 47.3----
2024-06-19 12:24 pm NW 7.0 15.9----29.93- 50.9 47.3----
2024-06-19 12:18 pmWNW 8.0 15.0----29.93- 51.1 47.3----
2024-06-19 12:12 pmWNW 5.1 13.0----29.93- 51.4 47.3----
2024-06-19 12:06 pmWNW 6.0 13.0----29.93- 51.4 47.1----
2024-06-19 12:00 pmWNW 6.0 12.0----29.93+0.04 51.3 47.1----
2024-06-19 11:54 am NW 5.1 13.0----29.93- 51.3 47.1----
2024-06-19 11:48 am NW 6.0 9.9----29.93- 51.1 47.1----
2024-06-19 11:42 amWNW 7.0 9.9----29.93- 51.3 47.1----
2024-06-19 11:36 am NW 4.1 9.9----29.92- 51.1 47.1----
2024-06-19 11:30 amWNW 4.1 9.9----29.92- 50.9 47.1----
2024-06-19 11:24 am NW 8.0 13.0----29.92- 50.7 47.1----
2024-06-19 11:18 amWNW 5.1 9.9----29.92- 50.5 47.1----
2024-06-19 11:12 amWNW 7.0 11.1----29.92- 50.4 47.1----
2024-06-19 11:06 amWNW 5.1 11.1----29.92- 50.4 46.9----
2024-06-19 11:00 am NW 6.0 12.0----29.91+0.03 50.2 46.9----
2024-06-19 10:54 amWNW 5.1 8.9----29.91- 50.2 46.9----
2024-06-19 10:48 am W 4.1 8.0----29.91- 50.0 46.9----
2024-06-19 10:42 amWNW 5.1 13.0----29.91- 49.8 46.9----
2024-06-19 10:36 am NW 5.1 9.9----29.91- 49.8 46.9----
2024-06-19 10:30 am NW 6.0 13.0----29.91- 49.6 46.9----
2024-06-19 10:24 am NW 7.0 12.0----29.91- 49.3 46.9----
2024-06-19 10:18 amWNW 5.1 11.1----29.91- 49.3 46.9----
2024-06-19 10:12 amWNW 5.1 8.9----29.91- 49.3 46.9----
2024-06-19 10:06 am NW 7.0 13.0----29.91- 48.7 46.9----
2024-06-19 10:00 amWNW 6.0 8.9----29.91+0.03 49.1 46.9----
2024-06-19 09:54 amWNW 6.0 8.9----29.91- 49.1 46.9----
2024-06-19 09:48 am NW 7.0 12.0----29.90- 48.9 46.9----
2024-06-19 09:42 amWNW 4.1 11.1----29.90- 48.9 46.9----
2024-06-19 09:36 amWNW 6.0 11.1----29.90- 48.9 46.9----
2024-06-19 09:30 amWNW 8.0 13.0----29.90- 48.6 46.9----
2024-06-19 09:24 am W 8.0 11.1----29.90- 48.7 46.9----
2024-06-19 09:18 amWNW 6.0 12.0----29.90-------
2024-06-19 09:12 amWNW 4.1 9.9----29.89- 48.7 46.9----
2024-06-19 09:06 amWNW 5.1 9.9----29.89- 48.7 46.9----
2024-06-19 09:00 amWNW 7.0 11.1----29.89+0.03 48.9 46.9----
2024-06-19 08:54 amWNW 2.9 9.9----29.90- 48.9 46.9----
2024-06-19 08:48 am W 5.1 7.0----29.89- 48.9 47.1----
2024-06-19 08:42 amWNW 4.1 8.0----29.89- 49.1 47.1----
2024-06-19 08:36 amWNW 5.1 9.9----29.89- 49.1 47.1----
2024-06-19 08:30 amWNW 5.1 8.9----29.88- 49.1 47.1----
2024-06-19 08:24 am NW 4.1 7.0----29.88- 49.1 47.1----
2024-06-19 08:18 amWNW 4.1 7.0----29.88- 49.3 47.1----
2024-06-19 08:12 amWNW 4.1 8.0----29.88- 49.3 47.5----
2024-06-19 08:06 amWNW 1.9 8.0----29.88- 49.3 47.1----
2024-06-19 08:00 am NW 4.1 6.0----29.88+0.03 49.1 47.1----
2024-06-19 07:54 amWNW 2.9 8.0----29.88- 49.1 47.1----
2024-06-19 07:48 am W 4.1 5.1----29.88- 49.1 47.1----
2024-06-19 07:42 am NW 4.1 8.0----29.88- 49.1 47.1----
2024-06-19 07:36 amNNW 2.9 8.9----29.88- 49.1 47.1----
2024-06-19 07:30 amWNW 2.9 6.0----29.88- 49.1 47.3----
2024-06-19 07:24 amWNW 1.9 6.0----29.87- 49.3 47.1----
2024-06-19 07:18 am NW 4.1 8.0----29.88-- 47.1----
2024-06-19 07:12 am W 1.9 5.1----29.88- 49.1 47.5----
2024-06-19 07:06 am NW 4.1 8.0----29.88- 49.1 47.5----
2024-06-19 07:00 am NW 5.1 9.9----29.88+0.03 49.1 47.1----
2024-06-19 06:54 am NW 4.1 8.9----29.88- 49.1 47.1----
2024-06-19 06:48 amWNW 5.1 8.0----29.87- 48.9 47.1----
2024-06-19 06:42 amWNW 5.1 8.0----29.87- 48.7 47.1----
2024-06-19 06:36 am NW 1.9 7.0----29.87- 48.4 47.1----
2024-06-19 06:30 am NW 4.1 8.0----29.87- 48.2 47.3----
2024-06-19 06:24 am W 1.9 5.1----29.87- 48.2 47.3----
2024-06-19 06:18 amWNW 1.9 4.1----29.87- 48.2 47.3----
2024-06-19 06:12 amWNW 1.9 4.1----29.87- 48.2 47.3----
2024-06-19 06:06 am W 1.9 4.1----29.87- 48.4 47.3----
2024-06-19 06:00 amWNW 1.9 4.1----29.86+0.00 48.4 47.3----
2024-06-19 05:54 am NW 1.9 4.1----29.86- 48.4 47.3----
2024-06-19 05:48 am NW 2.9 5.1----29.86- 48.6 47.3----
2024-06-19 05:42 amWNW 1.9 5.1----29.86- 48.6 47.3----
2024-06-19 05:36 am W 1.0 5.1----29.86- 48.6 47.3----
2024-06-19 05:30 amWNW 1.9 5.1----29.86- 48.6 47.3----
2024-06-19 05:24 amWNW 2.9 5.1----29.85- 48.6 47.3----
2024-06-19 05:18 amWNW 2.9 8.0----29.85- 48.7 47.3----
2024-06-19 05:12 amWNW 4.1 5.1----29.85- 48.7 47.3----
2024-06-19 05:06 amWNW 4.1 6.0----29.85- 48.7 47.3----
2024-06-19 05:00 amWNW 4.1 7.0----29.85-0.02 48.7 47.3----
2024-06-19 04:54 amWNW 2.9 7.0----29.85- 48.9 47.1----
2024-06-19 04:48 amWNW 4.1 5.1----29.85-- 47.1----
2024-06-19 04:42 amWNW 2.9 6.0----29.85-- 47.1----
2024-06-19 04:36 amWNW 2.9 5.1----29.85-- 47.1----
2024-06-19 04:30 amWNW 2.9 5.1----29.85- 48.7 47.1----
2024-06-19 04:24 amWNW 2.9 5.1----29.85- 48.9 47.1----
2024-06-19 04:18 amWNW 2.9 5.1----29.85- 48.9 47.3----
2024-06-19 04:12 amWNW 4.1 5.1----29.85- 48.9 47.1----
2024-06-19 04:06 amWNW 2.9 5.1----29.85- 49.1 47.3----
2024-06-19 04:00 amWNW 1.9 5.1----29.85-0.03 49.3 47.3----
2024-06-19 03:54 amWNW 2.9 6.0----29.85- 49.3 47.1----
2024-06-19 03:48 amWNW 2.9 5.1----29.85- 49.5 47.1----
2024-06-19 03:42 am NW 2.9 7.0----29.85- 49.6 47.1----
2024-06-19 03:36 amWNW 4.1 7.0----29.85- 49.8 47.1----
2024-06-19 03:30 am NW 4.1 8.0----29.85- 49.8 46.9----
2024-06-19 03:24 amWNW 2.9 5.1----29.86- 49.8 46.9----
2024-06-19 03:18 amWNW 1.9 6.0----29.86- 49.8 46.9----
2024-06-19 03:12 am NW 1.9 7.0----29.86- 50.0 46.9----
2024-06-19 03:06 amWNW 4.1 6.0----29.86- 50.0 46.9----
2024-06-19 03:00 amWNW 2.9 5.1----29.86-0.02 50.0 46.9----
2024-06-19 02:54 am NW 4.1 6.0----29.87- 49.8 46.9----
2024-06-19 02:48 am NW 2.9 6.0----29.87- 49.6 46.9----
2024-06-19 02:42 amWNW 1.9 4.1----29.87- 49.5 46.9----
2024-06-19 02:36 am W 1.9 4.1----29.86- 49.5 46.9----
2024-06-19 02:30 amWNW 1.9 4.1----29.86- 49.5 46.9----
2024-06-19 02:24 am NW 1.9 4.1----29.86- 49.6 46.9----
2024-06-19 02:18 am W 1.9 4.1----29.86- 49.6 46.9----
2024-06-19 02:12 am W 2.9 5.1----29.86- 49.6 46.9----
2024-06-19 02:06 am W 1.9 5.1----29.86- 49.8 46.9----
2024-06-19 02:00 amWNW 2.9 5.1----29.87-0.03 49.8 46.9----
2024-06-19 01:54 amWNW 2.9 5.1----29.87- 50.0 46.9----